Date,TemperatureHighF,TemperatureAvgF,TemperatureLowF,DewpointHighF,DewpointAvgF,DewpointLowF,HumidityHigh,HumidityAvg,HumidityLow,PressureMaxIn,PressureMinIn,WindSpeedMaxMPH,WindSpeedAvgMPH,GustSpeedMaxMPH,PrecipitationSumIn
2013-4-1,60,44,36,46,27,12,84,52,33,0.00,40.00,24,11,0,0.26
2013-4-2,42,36,31,17,13,9,49,40,28,0.00,40.00,27,10,0,0.16
2013-4-3,47,38,31,19,13,9,59,37,22,0.00,40.00,24,11,0,0.10
2013-4-4,59,42,31,26,17,10,55,38,16,0.00,40.00,16,8,0,0.00
2013-4-5,64,48,38,31,27,21,67,47,21,0.00,40.00,21,7,0,0.00
2013-4-6,52,41,33,26,10,2,56,31,15,0.00,40.00,14,6,0,0.00
2013-4-7,53,44,32,40,28,14,77,55,34,0.00,40.00,23,7,0,0.06
2013-4-8,68,54,45,43,40,36,90,63,32,0.00,40.00,11,5,0,0.00
2013-4-9,73,56,48,51,44,38,89,66,37,0.00,40.00,16,7,0,0.06
2013-4-10,63,52,47,48,44,41,87,73,55,0.00,40.00,11,4,0,0.20
2013-4-11,51,48,44,46,40,34,94,75,63,0.00,40.00,10,5,0,0.07
2013-4-12,44,40,38,39,36,29,96,84,63,0.00,40.00,21,10,0,1.10
2013-4-13,55,46,38,39,38,34,95,72,50,0.00,40.00,9,4,0,0.01
2013-4-14,54,48,42,40,31,26,78,52,36,0.00,40.00,16,7,0,0.00
2013-4-15,53,46,36,39,33,28,76,60,46,0.00,40.00,12,6,0,0.00
2013-4-16,64,53,41,49,42,35,88,67,47,0.00,40.00,21,9,0,0.00
2013-4-17,71,61,52,52,38,28,81,46,22,0.00,40.00,13,6,0,0.00
2013-4-18,66,55,48,43,35,28,68,48,32,0.00,40.00,17,7,0,0.00
2013-4-19,74,64,53,63,58,43,99,82,58,0.00,40.00,26,10,0,0.06
2013-4-20,66,55,46,63,42,25,95,64,36,0.00,40.00,20,8,0,0.96
2013-4-21,56,44,36,30,23,19,62,44,26,0.00,40.00,15,6,0,0.00
2013-4-22,50,44,36,35,31,24,76,61,36,0.00,40.00,20,8,0,0.02
2013-4-23,43,42,41,42,39,31,98,89,65,0.00,40.00,15,7,0,0.22
2013-4-24,76,56,42,52,46,42,98,73,33,0.00,40.00,15,7,0,0.01
2013-4-25,69,57,49,53,37,25,92,52,20,0.00,40.00,19,7,0,0.06
2013-4-26,57,51,46,42,36,30,82,58,46,0.00,40.00,15,6,0,0.00
2013-4-27,62,53,41,43,37,31,96,59,32,0.00,40.00,12,5,0,0.00
2013-4-28,68,56,42,42,36,28,82,49,29,0.00,40.00,15,5,0,0.00
2013-4-29,71,58,49,46,38,15,83,51,17,0.00,40.00,13,5,0,0.00
2013-4-30,67,57,46,39,30,15,68,40,14,0.00,40.00,12,4,0,0.00